Location: Unspecified
(0.0000°N, 0.0000°E)
Time: 08:49:52
(UTC+00:00)

Envisat - Pass Details

Date: 27 April 2019
Orbit: 764 x 766 km, 98.2° (Epoch: 19 May)

Event Time Altitude Azimuth Distance (km) Brightness Sun altitude
Rises 19:28:43 0° 184° (S) 3,232 6.1 -22.1°
Reaches altitude 10° 19:31:11 10° 192° (SSW) 2,303 5.4 -22.7°
Maximum altitude 19:35:48 36° 258° (WSW) 1,207 4.5 -23.8°
Drops below altitude 10° 19:40:23 10° 323° (NW) 2,294 6.1 -24.9°
Sets 19:42:51 0° 332° (NNW) 3,217 6.8 -25.5°
